sat.trackr.live / text

‹ back to catalog

2024-205L

NORAD 61904 · 2024-205L

PAYLOAD ACTIVE UNKNOWN

§ Identity

Operator
Country
PRC
Launch date
2024-11-11
Launch site
JSC
Launch vehicle
Mass (kg)
RCS (m²)

External: N2YO · Heavens-Above · Gunter

§ Orbital elements

Epoch: 2026-05-25T04:48:25.825824Z

Period
95.51 min
Inclination
97.4138°
Eccentricity
0.0069650
Mean motion
15.07696351 rev/d
Perigee alt
495.0 km
Apogee alt
591.4 km
Semi-major
6,921.4 km
B*
5.4416e-4
RAAN
216.4637°
Arg perigee
85.2836°
Mean anomaly
275.6342°
Rev number
8,473

§ Raw data

2024-205L1 61904U 24205L   26145.20029891  .00008721  00000+0  54416-3 0  99922 61904  97.4138 216.4637 0069650  85.2836 275.6342 15.07696351 84735

JSON: /api/v1/satellites/61904 · /tle

For live sub-satellite position, see the globe view (requires WebGL).

§ Visibility from observer

Set your observer location to see the next 7 days of passes ≥ 10°. The values pass through the URL so the page stays shareable.

No JS? Fill the form by hand. The geolocation button needs JavaScript.